QPF
0.01 0.01 0.02 0.02 0.02 0.03 0.02 0.03 0.04 0.05 0.05 0.03 0.02 0.04 0.03 0.02 0.02 0.05 0.08 0.06 0.08 0.10 0.10 0.08 0.05 0.05 0.06 0.06 0.08 0.05 0.04 0.08 0.09 0.07 0.05 0.07 0.04 0.02 0.01 0.02 0.03 0.03 0.04 0.04 0.04 0.04 0.03 0.03 0.03
0.01 0.02 0.02 0.02 0.02 0.02 0.02 0.02 0.03 0.04 0.03 0.01 0.01 0.01 0.02 0.02 0.02 0.04 0.07 0.08 0.07 0.05 0.06 0.05 0.04 0.04 0.06 0.07 0.06 0.03 0.02 0.05 0.09 0.09 0.08 0.08 0.06 0.02 0.01 0.01 0.02 0.02 0.03 0.03 0.03 0.03 0.03 0.03 0.03
0.04 0.03 0.01 0.01 0.02 0.01 0.01 0.01 0.02 0.03 0.02 0.02 0.02 0.01 0.01 0.01 0.02 0.04 0.06 0.05 0.03 0.03 0.04 0.04 0.04 0.04 0.05 0.04 0.04 0.02 0.02 0.03 0.07 0.08 0.08 0.09 0.07 0.03 0.01 0.01 0.01 0.02 0.02 0.03 0.03 0.02 0.03 0.02 0.02
0.04 0.03 0.01 0.02 0.03 0.01 0.01 0.01 0.01 0.02 0.03 0.02 0.01 0.01 0.01 0.01 0.01 0.03 0.03 0.02 0.02 0.02 0.04 0.04 0.05 0.05 0.04 0.03 0.03 0.03 0.02 0.02 0.03 0.04 0.06 0.08 0.06 0.04 0.02 0.02 0.01 0.02 0.02 0.03 0.03 0.02 0.03 0.02 0.02
0.02 0.02 0.01 0.02 0.03 0.02 0.01 0.01 0.01 0.02 0.02 0.01 0.01 0.00 0.01 0.02 0.02 0.02 0.02 0.02 0.02 0.01 0.03 0.04 0.03 0.04 0.04 0.03 0.03 0.03 0.03 0.02 0.02 0.02 0.03 0.05 0.04 0.03 0.02 0.02 0.01 0.01 0.02 0.02 0.03 0.02 0.03 0.02 0.02
0.01 0.01 0.01 0.02 0.02 0.02 0.02 0.01 0.02 0.02 0.01 0.01 0.00 0.01 0.02 0.04 0.03 0.02 0.02 0.02 0.02 0.02 0.02 0.03 0.03 0.04 0.04 0.03 0.02 0.03 0.03 0.03 0.02 0.02 0.02 0.03 0.03 0.03 0.02 0.02 0.01 0.01 0.01 0.02 0.03 0.03 0.03 0.02 0.02
0.03 0.01 0.01 0.01 0.02 0.03 0.02 0.02 0.02 0.03 0.01 0.01 0.01 0.01 0.02 0.05 0.04 0.03 0.02 0.03 0.04 0.04 0.03 0.04 0.03 0.03 0.04 0.04 0.04 0.02 0.02 0.04 0.04 0.03 0.02 0.02 0.02 0.03 0.03 0.02 0.01 0.02 0.02 0.02 0.04 0.04 0.03 0.03 0.02
0.02 0.01 0.01 0.01 0.01 0.03 0.03 0.02 0.02 0.02 0.01 0.01 0.01 0.01 0.03 0.04 0.06 0.04 0.03 0.07 0.07 0.07 0.05 0.05 0.03 0.02 0.03 0.03 0.04 0.05 0.03 0.05 0.06 0.04 0.03 0.02 0.03 0.04 0.04 0.03 0.02 0.02 0.03 0.04 0.06 0.05 0.05 0.04 0.04
0.01 0.01 0.00 0.00 0.01 0.01 0.02 0.02 0.02 0.01 0.01 0.01 0.01 0.01 0.02 0.06 0.09 0.05 0.03 0.08 0.11 0.11 0.10 0.07 0.03 0.02 0.03 0.04 0.06 0.07 0.06 0.07 0.07 0.06 0.04 0.04 0.03 0.04 0.05 0.04 0.04 0.04 0.04 0.08 0.11 0.08 0.07 0.06 0.05
0.01 0.00 0.00 0.00 0.01 0.01 0.01 0.01 0.01 0.01 0.01 0.02 0.01 0.01 0.01 0.02 0.03 0.02 0.02 0.06 0.11 0.11 0.07 0.06 0.04 0.01 0.02 0.03 0.05 0.08 0.10 0.08 0.06 0.06 0.06 0.05 0.03 0.04 0.05 0.05 0.07 0.09 0.08 0.09 0.09 0.09 0.07 0.04 0.02
0.00 0.00 0.00 0.00 0.00 0.00 0.01 0.01 0.01 0.01 0.02 0.02 0.01 0.02 0.03 0.03 0.02 0.01 0.01 0.03 0.06 0.06 0.04 0.04 0.04 0.02 0.03 0.03 0.04 0.09 0.11 0.08 0.05 0.06 0.06 0.04 0.03 0.02 0.03 0.04 0.04 0.05 0.04 0.03 0.03 0.03 0.02 0.02 0.02
0.00 0.00 0.00 0.00 0.00 0.00 0.01 0.01 0.01 0.01 0.02 0.02 0.04 0.06 0.04 0.04 0.02 0.01 0.01 0.02 0.02 0.02 0.02 0.03 0.02 0.02 0.03 0.04 0.06 0.07 0.08 0.06 0.03 0.05 0.04 0.03 0.02 0.01 0.02 0.04 0.04 0.04 0.03 0.02 0.01 0.02 0.02 0.02 0.03
0.00 0.00 0.00 0.00 0.00 0.01 0.01 0.01 0.01 0.01 0.02 0.03 0.05 0.04 0.02 0.02 0.02 0.02 0.02 0.03 0.01 0.00 0.01 0.02 0.02 0.02 0.02 0.03 0.03 0.03 0.03 0.03 0.03 0.04 0.04 0.03 0.02 0.02 0.03 0.04 0.05 0.05 0.03 0.03 0.03 0.03 0.04 0.05 0.06
0.01 0.01 0.00 0.01 0.01 0.01 0.01 0.01 0.01 0.01 0.01 0.01 0.01 0.01 0.01 0.01 0.01 0.01 0.03 0.03 0.01 0.01 0.01 0.02 0.02 0.01 0.01 0.02 0.03 0.03 0.03 0.02 0.03 0.04 0.04 0.03 0.02 0.02 0.02 0.04 0.06 0.06 0.04 0.04 0.05 0.04 0.04 0.07 0.08
0.01 0.01 0.01 0.01 0.01 0.01 0.00 0.00 0.01 0.01 0.01 0.01 0.01 0.01 0.00 0.00 0.01 0.01 0.02 0.03 0.01 0.01 0.01 0.01 0.01 0.01 0.02 0.02 0.05 0.04 0.03 0.03 0.03 0.04 0.05 0.03 0.03 0.02 0.03 0.03 0.05 0.05 0.05 0.05 0.04 0.03 0.03 0.04 0.05
0.01 0.01 0.01 0.01 0.01 0.00 0.00 0.00 0.00 0.00 0.01 0.01 0.01 0.01 0.00 0.00 0.01 0.01 0.03 0.03 0.01 0.02 0.02 0.01 0.01 0.02 0.01 0.02 0.05 0.05 0.06 0.05 0.04 0.04 0.07 0.05 0.04 0.03 0.03 0.02 0.04 0.05 0.05 0.06 0.05 0.04 0.03 0.02 0.02
0.01 0.01 0.01 0.01 0.01 0.00 0.01 0.00 0.00 0.00 0.00 0.02 0.03 0.02 0.01 0.01 0.01 0.01 0.02 0.03 0.02 0.01 0.02 0.02 0.01 0.01 0.01 0.01 0.04 0.06 0.08 0.08 0.06 0.05 0.07 0.06 0.04 0.04 0.03 0.02 0.03 0.04 0.05 0.04 0.03 0.05 0.04 0.02 0.02
0.01 0.01 0.00 0.01 0.01 0.01 0.01 0.01 0.00 0.00 0.00 0.03 0.06 0.04 0.02 0.01 0.02 0.02 0.02 0.04 0.03 0.02 0.02 0.02 0.02 0.02 0.01 0.02 0.02 0.03 0.05 0.09 0.12 0.08 0.06 0.06 0.05 0.04 0.04 0.02 0.01 0.03 0.04 0.04 0.03 0.03 0.04 0.03 0.01
0.01 0.01 0.01 0.01 0.02 0.02 0.01 0.01 0.00 0.00 0.00 0.02 0.04 0.06 0.05 0.04 0.05 0.05 0.04 0.05 0.05 0.03 0.03 0.02 0.03 0.03 0.02 0.02 0.02 0.02 0.02 0.03 0.08 0.13 0.10 0.09 0.09 0.07 0.05 0.04 0.02 0.01 0.02 0.02 0.03 0.03 0.03 0.02 0.01
0.00 0.01 0.01 0.02 0.03 0.02 0.01 0.00 0.00 0.00 0.00 0.01 0.02 0.03 0.05 0.05 0.05 0.09 0.08 0.07 0.07 0.05 0.04 0.03 0.02 0.03 0.02 0.02 0.03 0.03 0.03 0.02 0.03 0.09 0.12 0.11 0.10 0.09 0.06 0.05 0.03 0.02 0.02 0.03 0.04 0.03 0.02 0.02 0.02
0.00 0.00 0.01 0.01 0.02 0.02 0.01 0.01 0.00 0.00 0.00 0.00 0.01 0.01 0.03 0.04 0.04 0.06 0.11 0.07 0.06 0.05 0.02 0.01 0.01 0.01 0.02 0.03 0.03 0.02 0.02 0.01 0.01 0.03 0.08 0.12 0.12 0.09 0.08 0.06 0.05 0.04 0.04 0.04 0.04 0.06 0.05 0.04 0.04
0.01 0.00 0.00 0.01 0.02 0.02 0.01 0.01 0.00 0.00 0.00 0.00 0.00 0.00 0.01 0.02 0.03 0.02 0.05 0.05 0.04 0.02 0.01 0.01 0.00 0.00 0.01 0.02 0.01 0.01 0.01 0.00 0.00 0.01 0.02 0.04 0.06 0.06 0.07 0.06 0.05 0.05 0.04 0.03 0.04 0.06 0.06 0.05 0.05
0.00 0.00 0.00 0.01 0.01 0.02 0.01 0.00 0.00 0.00 0.01 0.01 0.01 0.00 0.00 0.01 0.01 0.02 0.03 0.03 0.03 0.02 0.01 0.01 0.01 0.01 0.01 0.01 0.01 0.02 0.01 0.01 0.01 0.01 0.02 0.02 0.02 0.04 0.05 0.06 0.05 0.04 0.03 0.03 0.04 0.04 0.05 0.05 0.04
0.00 0.00 0.01 0.01 0.02 0.01 0.00 0.00 0.00 0.00 0.00 0.01 0.00 0.00 0.00 0.01 0.00 0.01 0.02 0.02 0.02 0.02 0.02 0.01 0.01 0.02 0.02 0.02 0.02 0.02 0.02 0.03 0.01 0.01 0.02 0.01 0.02 0.03 0.04 0.06 0.06 0.06 0.05 0.04 0.03 0.03 0.05 0.05 0.05
0.00 0.01 0.01 0.01 0.01 0.00 0.00 0.00 0.00 0.00 0.00 0.00 0.00 0.00 0.00 0.00 0.00 0.00 0.01 0.01 0.01 0.01 0.02 0.01 0.01 0.02 0.02 0.02 0.03 0.02 0.02 0.02 0.03 0.03 0.03 0.02 0.02 0.03 0.04 0.03 0.03 0.04 0.05 0.04 0.03 0.04 0.04 0.05 0.05
0.00 0.00 0.00 0.01 0.00 0.00 0.00 0.00 0.00 0.00 0.00 0.00 0.00 0.00 0.00 0.00 0.00 0.00 0.01 0.01 0.01 0.01 0.02 0.03 0.04 0.03 0.02 0.03 0.03 0.02 0.02 0.01 0.01 0.02 0.02 0.03 0.03 0.03 0.03 0.03 0.02 0.01 0.02 0.03 0.04 0.04 0.06 0.06 0.06
0.00 0.00 0.00 0.00 0.00 0.00 0.00 0.00 0.00 0.01 0.01 0.01 0.01 0.00 0.00 0.01 0.01 0.01 0.01 0.02 0.02 0.03 0.05 0.07 0.08 0.06 0.04 0.03 0.03 0.03 0.03 0.02 0.02 0.02 0.01 0.02 0.04 0.04 0.03 0.03 0.02 0.02 0.02 0.04 0.06 0.06 0.07 0.08 0.07
0.00 0.00 0.00 0.01 0.00 0.00 0.00 0.00 0.00 0.01 0.01 0.01 0.00 0.01 0.01 0.01 0.01 0.02 0.02 0.03 0.04 0.05 0.06 0.08 0.09 0.09 0.06 0.04 0.03 0.03 0.02 0.02 0.02 0.02 0.02 0.01 0.03 0.04 0.03 0.03 0.03 0.04 0.05 0.06 0.07 0.07 0.08 0.09 0.09
0.00 0.00 0.00 0.00 0.00 0.00 0.00 0.01 0.00 0.00 0.00 0.01 0.01 0.01 0.01 0.01 0.01 0.01 0.01 0.02 0.02 0.03 0.03 0.04 0.06 0.05 0.04 0.03 0.03 0.02 0.01 0.01 0.02 0.03 0.02 0.02 0.03 0.03 0.03 0.04 0.04 0.04 0.05 0.05 0.06 0.06 0.08 0.09 0.08
0.00 0.01 0.01 0.01 0.00 0.00 0.00 0.01 0.00 0.00 0.00 0.00 0.01 0.01 0.01 0.01 0.01 0.01 0.01 0.01 0.02 0.02 0.02 0.02 0.01 0.02 0.02 0.02 0.02 0.02 0.02 0.02 0.02 0.02 0.02 0.03 0.03 0.03 0.03 0.04 0.05 0.05 0.05 0.04 0.06 0.06 0.06 0.05 0.05
MSLP
1006.88 1007.67 1008.63 1009.62 1010.49 1011.14 1011.52 1011.63 1011.54 1011.34 1011.15 1011.06 1011.12 1011.32 1011.60 1011.88 1012.08 1012.12 1011.98 1011.68 1011.28 1010.87 1010.53 1010.32 1010.27 1010.37 1010.58 1010.83 1011.07 1011.27 1011.42 1011.54 1011.66 1011.83 1012.08 1012.41 1012.81 1013.25 1013.68 1014.06 1014.36 1014.58 1014.72 1014.81 1014.88 1014.96 1015.05 1015.16 1015.28
1007.18 1008.15 1009.23 1010.27 1011.12 1011.68 1011.91 1011.84 1011.57 1011.20 1010.88 1010.69 1010.69 1010.87 1011.16 1011.47 1011.71 1011.81 1011.74 1011.52 1011.21 1010.89 1010.64 1010.51 1010.54 1010.70 1010.94 1011.21 1011.47 1011.67 1011.81 1011.93 1012.04 1012.20 1012.44 1012.75 1013.12 1013.52 1013.91 1014.24 1014.50 1014.68 1014.80 1014.88 1014.94 1015.01 1015.10 1015.20 1015.31
1007.71 1008.82 1009.97 1011.00 1011.77 1012.20 1012.27 1012.03 1011.59 1011.09 1010.66 1010.40 1010.36 1010.52 1010.80 1011.13 1011.40 1011.54 1011.52 1011.37 1011.14 1010.90 1010.74 1010.69 1010.79 1011.00 1011.28 1011.57 1011.84 1012.05 1012.20 1012.32 1012.43 1012.58 1012.79 1013.07 1013.39 1013.73 1014.06 1014.34 1014.55 1014.70 1014.81 1014.88 1014.96 1015.05 1015.15 1015.27 1015.39
1008.43 1009.62 1010.77 1011.73 1012.39 1012.68 1012.59 1012.20 1011.64 1011.04 1010.55 1010.25 1010.19 1010.33 1010.61 1010.94 1011.21 1011.37 1011.39 1011.29 1011.12 1010.96 1010.87 1010.89 1011.04 1011.28 1011.59 1011.90 1012.18 1012.39 1012.55 1012.67 1012.79 1012.94 1013.12 1013.36 1013.64 1013.92 1014.18 1014.40 1014.57 1014.69 1014.79 1014.89 1014.99 1015.11 1015.25 1015.39 1015.52
1009.25 1010.43 1011.52 1012.37 1012.89 1013.03 1012.81 1012.32 1011.69 1011.06 1010.56 1010.26 1010.20 1010.34 1010.61 1010.92 1011.19 1011.34 1011.38 1011.31 1011.19 1011.09 1011.06 1011.13 1011.31 1011.58 1011.89 1012.20 1012.47 1012.69 1012.85 1012.98 1013.10 1013.24 1013.42 1013.63 1013.86 1014.09 1014.30 1014.47 1014.60 1014.71 1014.81 1014.92 1015.06 1015.21 1015.38 1015.54 1015.69
1010.01 1011.12 1012.09 1012.80 1013.16 1013.17 1012.86 1012.33 1011.70 1011.11 1010.66 1010.41 1010.38 1010.53 1010.79 1011.08 1011.32 1011.45 1011.49 1011.44 1011.36 1011.30 1011.32 1011.42 1011.62 1011.89 1012.18 1012.47 1012.72 1012.92 1013.08 1013.21 1013.35 1013.50 1013.68 1013.88 1014.09 1014.27 1014.44 1014.57 1014.67 1014.77 1014.87 1015.00 1015.15 1015.33 1015.52 1015.69 1015.84
1010.57 1011.56 1012.37 1012.91 1013.14 1013.05 1012.71 1012.20 1011.64 1011.15 1010.80 1010.65 1010.67 1010.85 1011.10 1011.35 1011.55 1011.66 1011.68 1011.65 1011.60 1011.58 1011.63 1011.76 1011.96 1012.21 1012.47 1012.72 1012.93 1013.10 1013.25 1013.39 1013.54 1013.71 1013.90 1014.11 1014.30 1014.47 1014.60 1014.71 1014.78 1014.86 1014.96 1015.09 1015.25 1015.43 1015.62 1015.79 1015.92
1010.85 1011.69 1012.33 1012.71 1012.82 1012.69 1012.36 1011.93 1011.50 1011.15 1010.94 1010.90 1010.99 1011.19 1011.43 1011.65 1011.80 1011.88 1011.89 1011.87 1011.85 1011.86 1011.94 1012.09 1012.29 1012.51 1012.73 1012.93 1013.10 1013.24 1013.37 1013.51 1013.67 1013.87 1014.08 1014.30 1014.50 1014.66 1014.77 1014.85 1014.90 1014.96 1015.04 1015.15 1015.30 1015.47 1015.64 1015.79 1015.89
1010.85 1011.53 1012.01 1012.26 1012.29 1012.14 1011.87 1011.56 1011.28 1011.10 1011.04 1011.10 1011.27 1011.48 1011.70 1011.88 1011.99 1012.04 1012.04 1012.02 1012.03 1012.08 1012.19 1012.36 1012.55 1012.76 1012.95 1013.10 1013.23 1013.34 1013.45 1013.59 1013.76 1013.98 1014.21 1014.44 1014.64 1014.80 1014.90 1014.96 1014.99 1015.01 1015.07 1015.15 1015.28 1015.42 1015.57 1015.69 1015.76
1010.64 1011.18 1011.53 1011.68 1011.67 1011.54 1011.35 1011.17 1011.04 1011.01 1011.08 1011.24 1011.44 1011.66 1011.85 1011.98 1012.05 1012.06 1012.05 1012.04 1012.07 1012.16 1012.31 1012.50 1012.71 1012.91 1013.07 1013.20 1013.30 1013.39 1013.49 1013.62 1013.80 1014.03 1014.27 1014.51 1014.72 1014.87 1014.96 1014.99 1014.99 1014.99 1015.01 1015.07 1015.16 1015.28 1015.40 1015.49 1015.54
1010.36 1010.80 1011.06 1011.15 1011.13 1011.03 1010.92 1010.84 1010.83 1010.91 1011.07 1011.28 1011.50 1011.70 1011.84 1011.92 1011.94 1011.92 1011.89 1011.89 1011.95 1012.07 1012.25 1012.47 1012.70 1012.91 1013.08 1013.20 1013.29 1013.37 1013.47 1013.60 1013.78 1014.01 1014.25 1014.49 1014.69 1014.83 1014.90 1014.91 1014.89 1014.86 1014.85 1014.88 1014.96 1015.06 1015.16 1015.24 1015.29
1010.17 1010.55 1010.76 1010.82 1010.79 1010.72 1010.66 1010.65 1010.71 1010.84 1011.03 1011.24 1011.44 1011.59 1011.69 1011.72 1011.69 1011.63 1011.59 1011.59 1011.66 1011.80 1012.01 1012.26 1012.51 1012.75 1012.94 1013.08 1013.19 1013.28 1013.38 1013.52 1013.70 1013.91 1014.14 1014.36 1014.54 1014.66 1014.72 1014.71 1014.67 1014.63 1014.61 1014.62 1014.68 1014.78 1014.89 1014.97 1015.02
1010.20 1010.55 1010.73 1010.78 1010.75 1010.69 1010.65 1010.65 1010.71 1010.83 1010.98 1011.15 1011.29 1011.39 1011.43 1011.41 1011.35 1011.27 1011.21 1011.21 1011.27 1011.42 1011.63 1011.89 1012.17 1012.43 1012.66 1012.84 1012.98 1013.11 1013.23 1013.37 1013.54 1013.73 1013.94 1014.13 1014.28 1014.38 1014.42 1014.40 1014.36 1014.31 1014.29 1014.31 1014.38 1014.48 1014.60 1014.71 1014.78
1010.51 1010.85 1011.02 1011.06 1011.02 1010.94 1010.87 1010.83 1010.82 1010.87 1010.94 1011.03 1011.10 1011.15 1011.15 1011.10 1011.02 1010.93 1010.86 1010.84 1010.88 1010.99 1011.19 1011.43 1011.72 1012.00 1012.27 1012.50 1012.69 1012.86 1013.01 1013.16 1013.32 1013.48 1013.65 1013.80 1013.93 1014.00 1014.03 1014.02 1013.98 1013.95 1013.94 1013.97 1014.05 1014.17 1014.31 1014.44 1014.54
1011.06 1011.39 1011.55 1011.57 1011.51 1011.39 1011.26 1011.12 1011.02 1010.95 1010.91 1010.90 1010.91 1010.91 1010.90 1010.86 1010.79 1010.71 1010.63 1010.58 1010.58 1010.64 1010.78 1010.98 1011.24 1011.53 1011.83 1012.11 1012.36 1012.57 1012.76 1012.92 1013.06 1013.20 1013.32 1013.43 1013.52 1013.58 1013.61 1013.61 1013.59 1013.58 1013.59 1013.64 1013.73 1013.86 1014.01 1014.15 1014.27
1011.74 1012.04 1012.19 1012.20 1012.11 1011.94 1011.72 1011.48 1011.24 1011.04 1010.88 1010.78 1010.73 1010.72 1010.73 1010.73 1010.71 1010.67 1010.60 1010.52 1010.46 1010.44 1010.49 1010.62 1010.83 1011.10 1011.40 1011.72 1012.02 1012.28 1012.50 1012.67 1012.80 1012.91 1012.99 1013.06 1013.11 1013.16 1013.19 1013.21 1013.22 1013.23 1013.27 1013.33 1013.42 1013.55 1013.69 1013.84 1013.96
1012.39 1012.67 1012.80 1012.81 1012.69 1012.48 1012.18 1011.82 1011.46 1011.12 1010.84 1010.66 1010.58 1010.58 1010.64 1010.73 1010.79 1010.81 1010.77 1010.68 1010.56 1010.45 1010.39 1010.42 1010.55 1010.77 1011.06 1011.40 1011.73 1012.04 1012.29 1012.47 1012.59 1012.66 1012.70 1012.73 1012.76 1012.79 1012.83 1012.87 1012.91 1012.95 1013.00 1013.06 1013.14 1013.24 1013.36 1013.48 1013.58
1012.89 1013.15 1013.29 1013.30 1013.19 1012.95 1012.59 1012.14 1011.64 1011.18 1010.79 1010.54 1010.43 1010.47 1010.62 1010.81 1010.99 1011.11 1011.12 1011.03 1010.86 1010.66 1010.49 1010.40 1010.43 1010.59 1010.85 1011.19 1011.55 1011.88 1012.16 1012.35 1012.45 1012.50 1012.50 1012.50 1012.50 1012.52 1012.57 1012.63 1012.69 1012.76 1012.81 1012.86 1012.91 1012.97 1013.03 1013.11 1013.18
1013.16 1013.42 1013.59 1013.66 1013.59 1013.36 1012.96 1012.43 1011.83 1011.23 1010.73 1010.40 1010.28 1010.35 1010.59 1010.91 1011.23 1011.46 1011.55 1011.49 1011.30 1011.03 1010.76 1010.56 1010.49 1010.57 1010.79 1011.12 1011.49 1011.85 1012.14 1012.34 1012.44 1012.46 1012.43 1012.39 1012.37 1012.38 1012.43 1012.51 1012.60 1012.67 1012.72 1012.74 1012.75 1012.75 1012.75 1012.77 1012.79
1013.19 1013.49 1013.75 1013.92 1013.94 1013.76 1013.35 1012.76 1012.04 1011.32 1010.69 1010.26 1010.09 1010.18 1010.49 1010.93 1011.39 1011.76 1011.96 1011.96 1011.78 1011.48 1011.14 1010.85 1010.69 1010.70 1010.88 1011.19 1011.57 1011.94 1012.25 1012.45 1012.55 1012.55 1012.50 1012.43 1012.39 1012.39 1012.44 1012.52 1012.62 1012.69 1012.73 1012.73 1012.69 1012.63 1012.57 1012.52 1012.49
1013.05 1013.44 1013.85 1014.17 1014.32 1014.22 1013.83 1013.18 1012.35 1011.46 1010.68 1010.11 1009.85 1009.92 1010.27 1010.81 1011.40 1011.91 1012.24 1012.34 1012.22 1011.92 1011.55 1011.21 1010.99 1010.95 1011.09 1011.38 1011.76 1012.15 1012.48 1012.69 1012.79 1012.78 1012.71 1012.62 1012.55 1012.54 1012.58 1012.66 1012.76 1012.83 1012.85 1012.82 1012.74 1012.62 1012.50 1012.40 1012.34
1012.86 1013.41 1014.00 1014.52 1014.83 1014.82 1014.45 1013.73 1012.76 1011.70 1010.71 1009.96 1009.56 1009.55 1009.90 1010.50 1011.20 1011.85 1012.33 1012.55 1012.52 1012.28 1011.93 1011.57 1011.33 1011.26 1011.37 1011.66 1012.04 1012.44 1012.79 1013.02 1013.13 1013.12 1013.03 1012.93 1012.84 1012.81 1012.83 1012.91 1012.99 1013.05 1013.06 1013.00 1012.89 1012.73 1012.57 1012.43 1012.34
1012.74 1013.48 1014.29 1015.02 1015.49 1015.58 1015.21 1014.41 1013.29 1012.00 1010.78 1009.80 1009.22 1009.09 1009.39 1010.01 1010.80 1011.58 1012.20 1012.57 1012.66 1012.51 1012.22 1011.90 1011.65 1011.57 1011.68 1011.96 1012.35 1012.77 1013.14 1013.40 1013.52 1013.52 1013.43 1013.31 1013.20 1013.15 1013.15 1013.21 1013.28 1013.33 1013.32 1013.25 1013.11 1012.93 1012.75 1012.59 1012.49
1012.75 1013.70 1014.73 1015.66 1016.28 1016.44 1016.05 1015.15 1013.85 1012.34 1010.86 1009.64 1008.85 1008.57 1008.79 1009.40 1010.25 1011.14 1011.90 1012.42 1012.66 1012.63 1012.42 1012.15 1011.93 1011.86 1011.97 1012.25 1012.64 1013.08 1013.47 1013.76 1013.91 1013.92 1013.84 1013.72 1013.60 1013.52 1013.50 1013.53 1013.58 1013.61 1013.59 1013.51 1013.36 1013.18 1012.99 1012.83 1012.72
1012.91 1014.06 1015.28 1016.36 1017.09 1017.28 1016.86 1015.85 1014.38 1012.65 1010.93 1009.48 1008.49 1008.05 1008.18 1008.76 1009.65 1010.63 1011.51 1012.17 1012.54 1012.64 1012.53 1012.33 1012.15 1012.09 1012.20 1012.48 1012.88 1013.32 1013.74 1014.05 1014.23 1014.27 1014.21 1014.09 1013.96 1013.87 1013.82 1013.82 1013.85 1013.86 1013.83 1013.75 1013.60 1013.43 1013.24 1013.08 1012.98
1013.16 1014.46 1015.81 1016.99 1017.77 1017.96 1017.48 1016.37 1014.75 1012.85 1010.95 1009.32 1008.16 1007.60 1007.64 1008.20 1009.10 1010.14 1011.12 1011.89 1012.38 1012.59 1012.57 1012.43 1012.29 1012.24 1012.36 1012.63 1013.02 1013.47 1013.90 1014.24 1014.45 1014.53 1014.50 1014.39 1014.26 1014.15 1014.09 1014.06 1014.06 1014.06 1014.02 1013.93 1013.80 1013.63 1013.46 1013.31 1013.20
1013.41 1014.79 1016.20 1017.40 1018.16 1018.31 1017.78 1016.58 1014.87 1012.87 1010.88 1009.15 1007.91 1007.27 1007.26 1007.78 1008.69 1009.76 1010.79 1011.64 1012.21 1012.50 1012.55 1012.46 1012.35 1012.31 1012.42 1012.67 1013.06 1013.50 1013.94 1014.31 1014.55 1014.67 1014.66 1014.58 1014.47 1014.35 1014.27 1014.23 1014.21 1014.19 1014.15 1014.07 1013.94 1013.79 1013.63 1013.48 1013.38
1013.54 1014.92 1016.30 1017.44 1018.14 1018.23 1017.64 1016.41 1014.68 1012.68 1010.69 1008.98 1007.73 1007.09 1007.06 1007.56 1008.45 1009.52 1010.56 1011.44 1012.05 1012.38 1012.47 1012.42 1012.32 1012.29 1012.39 1012.63 1012.99 1013.43 1013.87 1014.25 1014.52 1014.67 1014.71 1014.66 1014.56 1014.46 1014.38 1014.33 1014.30 1014.27 1014.23 1014.16 1014.05 1013.91 1013.76 1013.62 1013.51
1013.47 1014.77 1016.03 1017.04 1017.63 1017.63 1017.02 1015.81 1014.15 1012.26 1010.39 1008.78 1007.63 1007.04 1007.03 1007.52 1008.38 1009.40 1010.41 1011.26 1011.87 1012.21 1012.32 1012.29 1012.21 1012.18 1012.27 1012.50 1012.85 1013.27 1013.71 1014.10 1014.39 1014.57 1014.64 1014.63 1014.56 1014.48 1014.41 1014.36 1014.33 1014.31 1014.28 1014.22 1014.13 1014.01 1013.87 1013.74 1013.62
1013.19 1014.33 1015.40 1016.24 1016.67 1016.59 1015.96 1014.83 1013.32 1011.62 1009.96 1008.56 1007.57 1007.08 1007.11 1007.59 1008.39 1009.34 1010.27 1011.05 1011.62 1011.94 1012.06 1012.05 1012.00 1012.00 1012.10 1012.32 1012.66 1013.07 1013.50 1013.89 1014.20 1014.40 1014.50 1014.52 1014.48 1014.43 1014.37 1014.34 1014.32 1014.32 1014.30 1014.27 1014.20 1014.11 1013.99 1013.87 1013.74
Thickness
5818 5816 5813 5803 5782 5762 5756 5767 5775 5775 5776 5783 5786 5781 5773 5766 5761 5756 5773 5781 5781 5779 5778 5777 5776 5775 5773 5772 5771 5771 5770 5769 5768 5768 5767 5766 5766 5765 5765 5764 5763 5763 5762 5761 5760 5759 5758 5757 5756
5820 5817 5808 5793 5766 5745 5754 5771 5773 5777 5783 5788 5787 5781 5774 5769 5773 5773 5776 5780 5780 5778 5777 5775 5774 5773 5772 5771 5770 5769 5768 5768 5767 5766 5766 5765 5764 5764 5763 5763 5762 5761 5760 5760 5759 5758 5757 5756 5755
5822 5818 5799 5781 5763 5752 5759 5774 5777 5784 5790 5788 5781 5780 5774 5769 5774 5775 5779 5781 5779 5777 5775 5774 5773 5772 5770 5769 5768 5768 5767 5766 5765 5765 5764 5764 5763 5762 5762 5761 5761 5760 5759 5758 5758 5757 5756 5755 5754
5820 5808 5794 5775 5764 5771 5775 5780 5785 5784 5787 5788 5781 5773 5775 5780 5779 5780 5781 5780 5778 5775 5774 5773 5772 5770 5769 5768 5767 5766 5765 5764 5764 5763 5763 5762 5762 5761 5760 5760 5759 5759 5758 5757 5757 5756 5755 5754 5753
5817 5798 5778 5765 5769 5780 5787 5791 5791 5784 5782 5783 5780 5768 5768 5779 5783 5782 5780 5778 5776 5774 5773 5772 5771 5769 5768 5767 5766 5765 5764 5763 5762 5762 5761 5761 5760 5760 5759 5759 5758 5758 5757 5757 5756 5755 5754 5754 5753
5805 5791 5765 5756 5769 5782 5789 5793 5791 5784 5782 5782 5777 5768 5766 5777 5779 5779 5779 5777 5775 5773 5772 5771 5770 5768 5767 5766 5765 5764 5763 5762 5762 5761 5760 5759 5759 5759 5758 5758 5757 5757 5757 5756 5755 5755 5754 5753 5752
5799 5783 5768 5767 5770 5778 5789 5795 5789 5783 5781 5782 5782 5767 5767 5773 5778 5779 5777 5776 5774 5773 5771 5769 5769 5767 5766 5765 5764 5763 5762 5761 5761 5760 5759 5759 5758 5758 5758 5757 5757 5757 5756 5756 5755 5754 5754 5753 5752
5808 5788 5774 5771 5772 5778 5794 5796 5794 5788 5784 5791 5787 5770 5766 5774 5779 5778 5775 5773 5773 5771 5770 5768 5768 5767 5765 5764 5763 5762 5761 5760 5760 5759 5758 5758 5758 5757 5757 5757 5756 5756 5756 5755 5755 5754 5754 5753 5752
5814 5783 5770 5777 5779 5785 5796 5792 5794 5798 5791 5789 5788 5783 5781 5781 5779 5774 5770 5769 5769 5769 5769 5768 5767 5765 5764 5763 5762 5761 5760 5760 5759 5758 5758 5757 5757 5756 5756 5756 5756 5756 5756 5756 5755 5755 5754 5754 5753
5804 5779 5785 5798 5799 5796 5798 5795 5793 5789 5782 5781 5781 5783 5784 5780 5775 5771 5767 5766 5766 5767 5767 5767 5766 5765 5763 5762 5761 5760 5759 5759 5758 5757 5757 5756 5756 5755 5755 5756 5756 5756 5756 5756 5755 5755 5754 5754 5753
5806 5793 5802 5807 5810 5807 5800 5798 5798 5786 5777 5781 5780 5780 5780 5777 5773 5770 5768 5768 5767 5768 5767 5767 5766 5765 5763 5762 5761 5760 5759 5758 5758 5757 5756 5755 5755 5754 5755 5755 5755 5755 5756 5755 5755 5754 5754 5754 5753
5807 5807 5812 5811 5815 5809 5803 5800 5794 5790 5789 5796 5793 5788 5783 5777 5774 5772 5770 5769 5768 5767 5767 5768 5767 5765 5763 5762 5760 5760 5759 5758 5758 5757 5756 5755 5754 5754 5754 5754 5754 5754 5754 5754 5754 5754 5754 5754 5753
5807 5809 5815 5816 5814 5810 5806 5799 5794 5792 5798 5800 5794 5788 5783 5779 5777 5776 5775 5773 5770 5768 5768 5768 5767 5766 5764 5762 5761 5760 5759 5759 5758 5757 5757 5756 5754 5754 5754 5753 5753 5753 5753 5753 5753 5753 5753 5753 5753
5812 5812 5812 5812 5811 5811 5802 5798 5795 5792 5799 5795 5790 5785 5784 5781 5779 5777 5775 5773 5771 5771 5770 5769 5767 5766 5765 5763 5761 5761 5760 5760 5758 5757 5756 5756 5755 5754 5753 5753 5752 5753 5753 5753 5753 5753 5753 5753 5753
5816 5805 5804 5807 5809 5807 5802 5788 5791 5797 5798 5792 5788 5786 5784 5783 5782 5779 5779 5777 5775 5774 5773 5770 5769 5767 5765 5764 5762 5762 5761 5760 5759 5758 5758 5757 5756 5755 5754 5753 5753 5753 5753 5752 5752 5752 5753 5752 5753
5807 5793 5783 5800 5807 5807 5795 5775 5792 5799 5795 5789 5788 5788 5786 5784 5784 5784 5783 5781 5779 5776 5774 5772 5771 5768 5766 5764 5763 5762 5761 5760 5759 5759 5758 5758 5757 5756 5755 5754 5754 5753 5752 5752 5752 5751 5751 5751 5751
5785 5776 5778 5791 5806 5804 5793 5781 5793 5798 5795 5789 5788 5788 5787 5785 5785 5786 5786 5785 5782 5779 5776 5773 5772 5769 5767 5765 5764 5763 5762 5760 5760 5759 5758 5758 5757 5756 5755 5754 5754 5754 5753 5752 5751 5751 5750 5750 5750
5775 5777 5779 5783 5799 5799 5789 5786 5794 5797 5795 5791 5790 5789 5788 5787 5787 5790 5789 5787 5784 5781 5778 5775 5773 5770 5768 5765 5764 5762 5761 5761 5760 5760 5759 5759 5758 5757 5756 5755 5755 5754 5753 5752 5751 5750 5750 5749 5749
5792 5783 5778 5787 5802 5795 5787 5786 5792 5796 5794 5792 5790 5789 5789 5790 5792 5792 5790 5789 5785 5782 5778 5776 5773 5771 5768 5765 5763 5760 5759 5760 5760 5761 5760 5759 5759 5758 5756 5756 5755 5755 5753 5752 5751 5750 5748 5747 5748
5792 5782 5779 5789 5801 5794 5785 5786 5795 5798 5797 5798 5796 5794 5792 5791 5790 5790 5790 5789 5786 5782 5780 5777 5775 5773 5771 5769 5766 5764 5762 5762 5761 5762 5761 5760 5759 5758 5757 5756 5755 5754 5753 5751 5750 5749 5746 5746 5746
5788 5783 5783 5783 5790 5791 5784 5779 5788 5797 5801 5802 5801 5800 5798 5795 5792 5791 5790 5789 5787 5784 5782 5780 5777 5774 5772 5770 5768 5765 5762 5761 5760 5760 5760 5761 5760 5759 5758 5756 5755 5754 5752 5750 5749 5748 5745 5743 5743
5782 5797 5794 5788 5773 5763 5774 5752 5777 5787 5791 5797 5800 5800 5800 5800 5798 5794 5793 5790 5789 5788 5786 5782 5779 5776 5774 5771 5768 5764 5761 5759 5760 5761 5761 5761 5760 5759 5758 5757 5755 5754 5752 5750 5749 5748 5746 5743 5740
5795 5802 5794 5785 5772 5760 5762 5752 5764 5781 5783 5793 5800 5803 5805 5805 5802 5799 5798 5796 5794 5791 5787 5784 5780 5777 5775 5773 5770 5766 5763 5762 5762 5761 5760 5760 5760 5759 5758 5756 5755 5754 5752 5751 5750 5748 5746 5744 5741
5803 5790 5778 5765 5756 5742 5753 5748 5754 5771 5784 5794 5803 5806 5808 5807 5806 5804 5802 5798 5794 5792 5788 5784 5780 5777 5775 5773 5770 5767 5765 5763 5761 5760 5758 5758 5758 5758 5757 5756 5755 5753 5752 5751 5750 5748 5745 5743 5741
5791 5765 5741 5737 5727 5734 5753 5749 5758 5787 5797 5800 5804 5806 5809 5808 5806 5803 5799 5796 5793 5791 5788 5785 5781 5777 5776 5773 5770 5768 5766 5764 5762 5760 5759 5757 5757 5757 5757 5756 5754 5753 5752 5751 5749 5747 5745 5743 5740
5781 5769 5740 5728 5723 5731 5747 5746 5770 5795 5801 5805 5808 5809 5809 5806 5806 5804 5801 5797 5794 5792 5788 5785 5781 5777 5775 5773 5770 5769 5767 5764 5763 5761 5759 5758 5757 5757 5757 5756 5754 5753 5751 5750 5748 5746 5744 5742 5740
5776 5764 5764 5740 5732 5726 5736 5752 5775 5793 5795 5799 5802 5803 5803 5803 5804 5802 5800 5797 5794 5791 5788 5786 5781 5778 5775 5773 5770 5768 5766 5764 5763 5762 5760 5758 5757 5757 5756 5754 5753 5751 5750 5748 5747 5744 5742 5741 5739
5786 5768 5748 5734 5720 5717 5732 5742 5751 5774 5782 5790 5794 5796 5799 5800 5799 5799 5798 5795 5793 5791 5788 5785 5782 5778 5776 5773 5770 5769 5766 5764 5762 5760 5758 5757 5756 5755 5753 5752 5750 5749 5747 5746 5744 5742 5741 5738 5737
5772 5761 5744 5729 5730 5716 5715 5736 5773 5775 5781 5785 5790 5794 5796 5796 5796 5796 5795 5793 5792 5788 5785 5782 5780 5777 5773 5771 5769 5767 5764 5762 5760 5758 5757 5755 5754 5753 5751 5749 5748 5746 5744 5743 5741 5740 5738 5735 5734
5777 5764 5749 5736 5725 5719 5717 5737 5782 5780 5783 5784 5786 5790 5793 5793 5793 5792 5791 5789 5786 5783 5781 5779 5777 5774 5772 5770 5767 5764 5762 5760 5758 5756 5755 5753 5751 5750 5748 5746 5744 5743 5741 5740 5738 5737 5735 5733 5731